COSMOS 2251 DEB, 34325

Orbit data source: Space-Track

COSMOS 2251 DEB, 34325 is space debris in LEO originally from a launch on Wed, 16 Jun 1993 UTC launched from the Plesetsk Missile And Space Complex (PKMTR). The debris from Iridium 33, an American commercial communications satellite, has been tracked extensively since its accidental collision with the defunct Russian satellite Cosmos 2251 in 2009. This event, occurring at high speed in low Earth orbit (LEO), generated thousands of pieces of space debris, significantly increasing the risk of further collisions. The Iridium 33 debris cloud has impacted space traffic management and orbital debris mitigation strategies, making it a subject of ongoing study in space situational awareness.

Loading next visibility...
Identifier
34325, 1993-036NX
Orbit
LEO
Country
Flag of CISCIS
Related business
Manufacturer
Unknown
Mission
Spacecraft
Bus & Motor
Unknown
Mass
Unknown
Launch date (UTC)
1993-06-16 (33 years ago)
Launch vehicle
Unknown
Launch site
Plesetsk Missile And Space Complex (PKMTR)
Object type
Payload
Rocket body
Debris
Shape & HBR
Unknown shape, 0.1 m
Radar Cross Section
Small (<0.1 m²)

Expand to show TLE details & history
Last TLE update: 21 hours ago

TLE from 21 hours ago
0 COSMOS 2251 DEB
1 34325U 93036NX  26119.58629065  .00001672  00000-0  89536-3 0  9998
2 34325  73.8710 309.7615 0188522 301.6429 113.7769 14.05269180874512
Epoch: 2026-04-29T14:04Z
TLE epoch observation values (Epoch: 2026-04-29T14:04:15.512Z)
Latitude
54.11352°
Longitude
-95.41956°
Altitude
941.418 km
Speed
7.357 km/s
True Right ascension
22h 12m 45s
True Declination
53° 57' 15"
Sunlit
Object was in daylight at epoch
Visualization orbit readout
Latitude
Unknown
Longitude
Unknown
Altitude
Unknown
Speed
Unknown
Apparent Right ascension
Unknown
Apparent Declination
Unknown
Sunlit
N/A
Visualization observer readout
Local Sidereal Time
18:28:09
Azimuth
Unknown
Elevation
Unknown
Doppler factor
Unknown
Orbital elements
Apogee altitude
1,009.982 km
Perigee altitude
736.572 km
Semi-major axis
7,251.414 km
Eccentricity
0.01885
Inclination
73.871°
RAAN
309.7615°
Arg. of periapsis
301.6429°
True anomaly
115.73485°
Mean anomaly
113.7769°
Eccentric anomaly
114.75777°
Mean motion
3.51487 °/min
Orbital period
102.42 mins
BSTAR
0.00089536
Loading maneuver chart data...
Computing Atmospheric mass density...

Documentation

Showing up to 5 results
|